HVDC transfer

From www.emi.ea.govt.nz provided by the Electricity Authority (New Zealand)
Run at: 20240506094641

Parameters
Date range,11 Dec 2019 - 11 Dec 2019
Time scale,Trading period
Show,Average flow (MW)

Period start,Period end,Trading period,Direction,Energy transfer (GWh),Peak flow (MW),Average flow (MW)
11/12/2019 00:00:00,11/12/2019 00:30:00,1,Northward at Haywards,0.199,398,398
11/12/2019 00:30:00,11/12/2019 01:00:00,2,Northward at Haywards,0.183,366,366
11/12/2019 01:00:00,11/12/2019 01:30:00,3,Northward at Haywards,0.182,363,363
11/12/2019 01:30:00,11/12/2019 02:00:00,4,Northward at Haywards,0.169,338,338
11/12/2019 02:00:00,11/12/2019 02:30:00,5,Northward at Haywards,0.164,328,328
11/12/2019 02:30:00,11/12/2019 03:00:00,6,Northward at Haywards,0.157,313,313
11/12/2019 03:00:00,11/12/2019 03:30:00,7,Northward at Haywards,0.163,325,325
11/12/2019 03:30:00,11/12/2019 04:00:00,8,Northward at Haywards,0.157,314,314
11/12/2019 04:00:00,11/12/2019 04:30:00,9,Northward at Haywards,0.159,317,317
11/12/2019 04:30:00,11/12/2019 05:00:00,10,Northward at Haywards,0.168,335,335
11/12/2019 05:00:00,11/12/2019 05:30:00,11,Northward at Haywards,0.185,369,369
11/12/2019 05:30:00,11/12/2019 06:00:00,12,Northward at Haywards,0.195,389,389
11/12/2019 06:00:00,11/12/2019 06:30:00,13,Northward at Haywards,0.228,456,456
11/12/2019 06:30:00,11/12/2019 07:00:00,14,Northward at Haywards,0.289,578,578
11/12/2019 07:00:00,11/12/2019 07:30:00,15,Northward at Haywards,0.299,597,597
11/12/2019 07:30:00,11/12/2019 08:00:00,16,Northward at Haywards,0.260,519,519
11/12/2019 08:00:00,11/12/2019 08:30:00,17,Northward at Haywards,0.293,585,585
11/12/2019 08:30:00,11/12/2019 09:00:00,18,Northward at Haywards,0.299,597,597
11/12/2019 09:00:00,11/12/2019 09:30:00,19,Northward at Haywards,0.306,612,612
11/12/2019 09:30:00,11/12/2019 10:00:00,20,Northward at Haywards,0.309,617,617
11/12/2019 10:00:00,11/12/2019 10:30:00,21,Northward at Haywards,0.301,601,601
11/12/2019 10:30:00,11/12/2019 11:00:00,22,Northward at Haywards,0.312,623,623
11/12/2019 11:00:00,11/12/2019 11:30:00,23,Northward at Haywards,0.310,620,620
11/12/2019 11:30:00,11/12/2019 12:00:00,24,Northward at Haywards,0.311,621,621
11/12/2019 12:00:00,11/12/2019 12:30:00,25,Northward at Haywards,0.322,644,644
11/12/2019 12:30:00,11/12/2019 13:00:00,26,Northward at Haywards,0.318,635,635
11/12/2019 13:00:00,11/12/2019 13:30:00,27,Northward at Haywards,0.329,658,658
11/12/2019 13:30:00,11/12/2019 14:00:00,28,Northward at Haywards,0.335,669,669
11/12/2019 14:00:00,11/12/2019 14:30:00,29,Northward at Haywards,0.316,631,631
11/12/2019 14:30:00,11/12/2019 15:00:00,30,Northward at Haywards,0.315,629,629
11/12/2019 15:00:00,11/12/2019 15:30:00,31,Northward at Haywards,0.349,698,698
11/12/2019 15:30:00,11/12/2019 16:00:00,32,Northward at Haywards,0.344,687,687
11/12/2019 16:00:00,11/12/2019 16:30:00,33,Northward at Haywards,0.343,686,686
11/12/2019 16:30:00,11/12/2019 17:00:00,34,Northward at Haywards,0.342,683,683
11/12/2019 17:00:00,11/12/2019 17:30:00,35,Northward at Haywards,0.355,710,710
11/12/2019 17:30:00,11/12/2019 18:00:00,36,Northward at Haywards,0.353,705,705
11/12/2019 18:00:00,11/12/2019 18:30:00,37,Northward at Haywards,0.362,724,724
11/12/2019 18:30:00,11/12/2019 19:00:00,38,Northward at Haywards,0.362,723,723
11/12/2019 19:00:00,11/12/2019 19:30:00,39,Northward at Haywards,0.359,717,717
11/12/2019 19:30:00,11/12/2019 20:00:00,40,Northward at Haywards,0.340,680,680
11/12/2019 20:00:00,11/12/2019 20:30:00,41,Northward at Haywards,0.338,675,675
11/12/2019 20:30:00,11/12/2019 21:00:00,42,Northward at Haywards,0.347,693,693
11/12/2019 21:00:00,11/12/2019 21:30:00,43,Northward at Haywards,0.381,761,761
11/12/2019 21:30:00,11/12/2019 22:00:00,44,Northward at Haywards,0.338,675,675
11/12/2019 22:00:00,11/12/2019 22:30:00,45,Northward at Haywards,0.303,606,606
11/12/2019 22:30:00,11/12/2019 23:00:00,46,Northward at Haywards,0.227,453,453
11/12/2019 23:00:00,11/12/2019 23:30:00,47,Northward at Haywards,0.203,405,405
11/12/2019 23:30:00,12/12/2019 00:00:00,48,Northward at Haywards,0.171,341,341
